Weather History for Pine Ridge, SD

Change the Weather History Date:

Saturday, February 2, 2013

  Actual Average Record
Temperature  
Mean Temperature 35 °F 24 °F  
Max Temperature 44 °F 38 °F 52 °F (2005)
Min Temperature 26 °F 11 °F -21 °F (2011)
Degree Days  
Heating Degree Days 30 41  
Month to date heating degree days 65 82  
Since 1 July heating degree days 4192 4359  
Cooling Degree Days 0 0  
Month to date cooling degree days 0 0  
Year to date cooling degree days 0 0  
Moisture  
Dew Point 25 °F    
Average Humidity 67    
Maximum Humidity 92    
Minimum Humidity 41    
Precipitation  
Precipitation 0.00 in 0.02 in 0.06 in (2003)
Month to date precipitation 0.01 0.04  
Year to date precipitation 0.74 0.36  
Sea Level Pressure  
Sea Level Pressure 30.25 in    
Wind  
Wind Speed 10 mph (West)    
Max Wind Speed 25 mph    
Max Gust Speed 35 mph    
Visibility 10 miles    
Events      
T = Trace of Precipitation, MM = Missing Value Source: NWS Daily Summary

Daily Weather History Graph

Daily Weather History Graph

Search for Another Location

Airport:

Trip Planner

Search our weather history database for the weather conditions in past years. The results will help you decide how hot, cold, wet, or windy it might be!

Date:

Astronomy

Feb. 02, 2013 Rise Set
Actual Time 7:03 AM MST 5:04 PM MST
Civil Twilight 6:33 AM MST 5:34 PM MST
Nautical Twilight 5:59 AM MST 6:08 PM MST
Astronomical Twilight 5:26 AM MST 6:41 PM MST
Moon No Moon Rise 10:03 AM MST (2/2)
Length of Visible Light 11h 00m
Length of Day
10h 00m
Waning Gibbous, 59% of the Moon is Illuminated
Feb 2
Waning Gibbous
Feb 3
Last Quarter
Feb 10
New
Feb 17
First Quarter
Feb 25
Full

Hourly Weather History & Observations

Time (MST) Temp. Windchill Dew Point Humidity Pressure Visibility Wind Dir Wind Speed Gust Speed Precip Events Conditions
12:52 AM 35.1 °F 28.6 °F 28.9 °F 78% 30.19 in 10.0 mi West 8.1 mph - N/A   Overcast
1:52 AM 34.0 °F 28.8 °F 28.9 °F 82% 30.19 in 10.0 mi West 5.8 mph - N/A   Mostly Cloudy
2:52 AM 30.9 °F 24.3 °F 28.0 °F 89% 30.22 in 10.0 mi West 6.9 mph - N/A   Partly Cloudy
3:52 AM 30.0 °F 25.2 °F 26.1 °F 85% 30.22 in 10.0 mi WSW 4.6 mph - N/A   Clear
4:52 AM 30.9 °F 22.8 °F 26.1 °F 82% 30.23 in 10.0 mi West 9.2 mph - N/A   Clear
5:52 AM 30.9 °F 22.2 °F 25.0 °F 79% 30.23 in 10.0 mi West 10.4 mph - N/A   Clear
6:52 AM 30.9 °F 25.2 °F 24.1 °F 76% 30.25 in 10.0 mi WSW 5.8 mph - N/A   Clear
7:52 AM 30.0 °F 25.2 °F 23.0 °F 75% 30.25 in 10.0 mi SW 4.6 mph - N/A   Clear
8:52 AM 35.1 °F 29.3 °F 24.1 °F 64% 30.25 in 10.0 mi WNW 6.9 mph - N/A   Clear
9:52 AM 37.0 °F 28.9 °F 25.0 °F 62% 30.26 in 10.0 mi WNW 12.7 mph - N/A   Clear
11:52 AM 39.9 °F 30.5 °F 26.1 °F 58% 30.22 in 10.0 mi West 19.6 mph 27.6 mph N/A   Clear
12:52 PM 41.0 °F 31.4 °F 25.0 °F 53% 30.20 in 10.0 mi West 21.9 mph 29.9 mph N/A   Clear
1:52 PM 43.0 °F 34.8 °F 25.0 °F 49% 30.20 in 10.0 mi West 18.4 mph 32.2 mph N/A   Clear
2:52 PM 44.1 °F 35.9 °F 23.0 °F 43% 30.22 in 10.0 mi WNW 19.6 mph 34.5 mph N/A   Scattered Clouds
3:52 PM 42.1 °F 35.2 °F 25.0 °F 51% 30.25 in 10.0 mi WNW 12.7 mph 24.2 mph N/A   Mostly Cloudy
4:52 PM 39.9 °F 32.5 °F 25.0 °F 55% 30.26 in 10.0 mi WNW 12.7 mph 18.4 mph N/A   Clear
5:52 PM 36.0 °F 30.3 °F 25.0 °F 64% 30.28 in 10.0 mi WNW 6.9 mph - N/A   Clear
6:52 PM 35.1 °F 28.6 °F 25.0 °F 67% 30.29 in 10.0 mi NW 8.1 mph - N/A   Clear
7:52 PM 30.9 °F 27.5 °F 24.1 °F 76% 30.31 in 10.0 mi WNW 3.5 mph - N/A   Clear
8:52 PM 28.0 °F 21.7 °F 23.0 °F 81% 30.30 in 10.0 mi SSW 5.8 mph - N/A   Clear
9:52 PM 28.0 °F 24.2 °F 23.0 °F 81% 30.29 in 10.0 mi SW 3.5 mph - N/A   Clear
10:52 PM 27.0 °F 18.7 °F 23.0 °F 85% 30.28 in 10.0 mi SW 8.1 mph - N/A   Clear
11:52 PM 27.0 °F 21.6 °F 21.9 °F 81% 30.28 in 10.0 mi SW 4.6 mph - N/A   Clear